Tracking 29781 objects as of 15-Oct-2024
HD Live streaming from Space Station
objects crossing your sky now

MARISAT 1

Track MARISAT 1 now!
MARISAT 1 is classified as:


NORAD ID: 8697
Int'l Code: 1976-017A
Perigee: 36,037.9 km
Apogee: 36,151.1 km
Inclination: 7.3 °
Period: 1,451.5 minutes
Semi major axis: 42465 km
RCS: 5.8066 m2 (large)
Launch date: February 19, 1976
Source: United States (US)
Launch site: AIR FORCE EASTERN TEST RANGE (AFETR)
Your satellite tracking list
Your tracking list is empty




NASA's NSSDC Master Catalog

Two Line Element Set (TLE):
1 08697U 76017A   24288.73273726 -.00000046  00000-0  00000-0 0  9993
2 08697   7.2685 299.3138 0013326 196.1761 348.8627  0.99208519176040
Source of the keplerian elements: AFSPC